N216TB KPNS-KMSY

Flight info

Callsign N216TB
Flight time N/A
Altitude 12000
Route DCT LOXLY DCT SJI DCT GPT DCT SNAKI DCT JASPO DCT PEPUE DCT
Aircraft PC12/L-L/C

Departure

Time 2026-05-05 16:17
Airport Pensacola International Airport (KPNS)

Arrival

Time N/A
Airport Louis Armstrong New Orleans International Airport (KMSY)
Time Latitude Longitude Altitude Speed Heading
2026-05-05 16:05 30.47851 -87.19275 122 ft 0 kts 186°
2026-05-05 16:13 30.47867 -87.19278 121 ft 7 kts 298°
2026-05-05 16:13 30.47914 -87.19269 123 ft 7 kts 40°
2026-05-05 16:13 30.47940 -87.19215 122 ft 9 kts 79°
2026-05-05 16:14 30.47967 -87.19083 125 ft 3 kts 77°
2026-05-05 16:14 30.47968 -87.19075 122 ft 0 kts 84°
2026-05-05 16:15 30.47972 -87.19053 124 ft 10 kts 76°
2026-05-05 16:15 30.47880 -87.18955 119 ft 0 kts 166°
2026-05-05 16:16 30.47445 -87.18837 109 ft 90 kts 166°
2026-05-05 16:16 30.45733 -87.18460 603 ft 155 kts 167°
2026-05-05 16:17 30.43663 -87.17261 1623 ft 191 kts 123°
2026-05-05 16:17 30.43372 -87.15726 2148 ft 204 kts 88°
2026-05-05 16:18 30.45241 -87.13323 3191 ft 223 kts 14°
2026-05-05 16:18 30.46762 -87.13428 3701 ft 226 kts 338°
2026-05-05 16:18 30.48563 -87.16154 4759 ft 220 kts 282°
2026-05-05 16:19 30.48900 -87.17891 5278 ft 221 kts 280°
2026-05-05 16:19 30.49209 -87.19622 5795 ft 219 kts 280°
2026-05-05 16:19 30.49729 -87.23050 6818 ft 214 kts 281°
2026-05-05 16:20 30.49740 -87.23112 6847 ft 214 kts 281°
2026-05-05 16:22 30.51649 -87.27748 8327 ft 213 kts 298°
2026-05-05 16:22 30.52396 -87.29306 8858 ft 212 kts 297°
2026-05-05 16:23 30.53811 -87.32311 9969 ft 210 kts 297°
2026-05-05 16:23 30.54506 -87.33779 10590 ft 205 kts 297°
2026-05-05 16:23 30.55871 -87.36669 11711 ft 206 kts 297°
2026-05-05 16:24 30.56577 -87.38163 11985 ft 218 kts 297°
2026-05-05 16:24 30.57333 -87.39764 12003 ft 233 kts 298°
2026-05-05 16:24 30.58919 -87.43121 11994 ft 243 kts 298°
2026-05-05 16:25 30.59734 -87.44847 11998 ft 244 kts 297°
2026-05-05 16:25 30.61365 -87.48308 11986 ft 244 kts 297°
2026-05-05 16:25 30.62178 -87.50035 11989 ft 244 kts 297°
2026-05-05 16:26 30.63805 -87.53490 11983 ft 243 kts 297°
2026-05-05 16:26 30.65417 -87.56918 11990 ft 244 kts 297°
2026-05-05 16:27 30.66229 -87.58645 11987 ft 244 kts 297°
2026-05-05 16:27 30.67041 -87.60373 11991 ft 244 kts 297°
2026-05-05 16:27 30.67685 -87.62175 11979 ft 243 kts 280°
2026-05-05 16:27 30.67544 -87.64145 11696 ft 254 kts 252°
2026-05-05 16:28 30.66545 -87.65860 11318 ft 264 kts 225°
2026-05-05 16:28 30.64963 -87.66827 10879 ft 255 kts 197°
2026-05-05 16:28 30.63200 -87.66776 10435 ft 258 kts 167°
2026-05-05 16:28 30.61655 -87.65731 10000 ft 261 kts 137°
2026-05-05 16:29 30.60723 -87.63962 9541 ft 262 kts 108°
2026-05-05 16:29 30.60628 -87.61920 9063 ft 252 kts 77°
2026-05-05 16:29 30.61332 -87.60094 8609 ft 247 kts 57°
2026-05-05 16:29 30.62276 -87.58485 8154 ft 232 kts 53°
2026-05-05 16:30 30.63178 -87.57018 7696 ft 211 kts 53°
2026-05-05 16:30 30.64026 -87.55652 7253 ft 203 kts 53°
2026-05-05 16:30 30.64846 -87.54340 6801 ft 199 kts 53°
2026-05-05 16:30 30.65663 -87.53045 6361 ft 198 kts 53°
2026-05-05 16:31 30.66472 -87.51780 5913 ft 196 kts 53°
2026-05-05 16:31 30.67252 -87.50579 5455 ft 181 kts 53°
2026-05-05 16:31 30.68017 -87.49421 5008 ft 180 kts 53°
2026-05-05 16:31 30.68786 -87.48275 4546 ft 178 kts 52°
2026-05-05 16:32 30.69548 -87.47154 4091 ft 176 kts 53°
2026-05-05 16:32 30.70307 -87.46056 3648 ft 174 kts 53°
2026-05-05 16:32 30.71066 -87.44977 3216 ft 170 kts 54°
2026-05-05 16:32 30.71705 -87.43842 2982 ft 165 kts 62°
2026-05-05 16:33 30.72284 -87.42737 2966 ft 159 kts 62°
2026-05-05 16:33 30.72861 -87.41647 2966 ft 157 kts 62°
2026-05-05 16:33 30.73427 -87.40565 2965 ft 156 kts 62°
2026-05-05 16:33 30.73956 -87.39483 2943 ft 147 kts 75°
2026-05-05 16:34 30.74163 -87.38297 2978 ft 156 kts 84°
2026-05-05 16:34 30.74350 -87.37031 2983 ft 161 kts 83°
2026-05-05 16:34 30.74537 -87.35744 2982 ft 162 kts 84°
2026-05-05 16:34 30.74723 -87.34428 2990 ft 166 kts 84°
2026-05-05 16:35 30.74909 -87.33099 2988 ft 167 kts 84°
2026-05-05 16:35 30.75095 -87.31766 2981 ft 167 kts 83°
2026-05-05 16:35 30.75275 -87.30457 2983 ft 166 kts 83°
2026-05-05 16:35 30.75457 -87.29132 2986 ft 166 kts 83°
2026-05-05 16:36 30.75636 -87.27795 2994 ft 168 kts 84°
2026-05-05 16:36 30.75584 -87.26467 2992 ft 166 kts 115°
2026-05-05 16:36 30.74794 -87.25583 2971 ft 160 kts 162°
2026-05-05 16:36 30.73719 -87.25580 2984 ft 156 kts 188°
2026-05-05 16:37 30.72644 -87.25546 2984 ft 155 kts 169°
2026-05-05 16:37 30.71596 -87.25296 2977 ft 153 kts 169°
2026-05-05 16:37 30.70571 -87.25029 2980 ft 152 kts 168°
2026-05-05 16:37 30.69535 -87.24749 2993 ft 155 kts 167°
2026-05-05 16:38 30.68479 -87.24466 2997 ft 158 kts 168°
2026-05-05 16:38 30.67404 -87.24179 2993 ft 158 kts 168°
2026-05-05 16:38 30.66336 -87.23892 2997 ft 158 kts 168°
2026-05-05 16:38 30.65270 -87.23606 2996 ft 156 kts 168°
2026-05-05 16:39 30.64212 -87.23321 2994 ft 156 kts 168°
2026-05-05 16:39 30.63159 -87.23039 2984 ft 155 kts 167°
2026-05-05 16:39 30.62104 -87.22756 2817 ft 157 kts 168°
2026-05-05 16:39 30.61037 -87.22471 2621 ft 157 kts 167°
2026-05-05 16:40 30.59979 -87.22188 2416 ft 159 kts 167°
2026-05-05 16:40 30.59070 -87.21945 2233 ft 153 kts 168°
2026-05-05 16:49 30.58830 -87.21880 2176 ft 153 kts 167°
2026-05-05 16:49 30.57854 -87.21618 1987 ft 134 kts 167°
2026-05-05 16:49 30.56984 -87.21384 1814 ft 126 kts 167°
2026-05-05 16:49 30.56133 -87.21160 1647 ft 124 kts 167°
2026-05-05 16:50 30.55299 -87.20934 1489 ft 122 kts 167°
2026-05-05 16:50 30.54480 -87.20720 1326 ft 122 kts 167°
2026-05-05 16:50 30.53636 -87.20493 1157 ft 127 kts 167°
2026-05-05 16:50 30.52772 -87.20264 1010 ft 133 kts 167°
2026-05-05 16:51 30.51837 -87.20017 884 ft 139 kts 165°
2026-05-05 16:51 30.50904 -87.19767 680 ft 135 kts 166°
2026-05-05 16:51 30.50008 -87.19528 570 ft 133 kts 165°